Flag for U.S.A. Weather past 2 weeks in Modesto, California, U.S.A.

Now
84 °F

Sunny.


Feels Like: 82 °F
Forecast: 62 / 87 °F
Wind: 22 mph from Northwest

Location: Modesto City-County-Sham Field

Current Time: Aug 29, 2015 at 7:33:44 PM

Latest Report: Aug 29, 2015 at 6:53 PM


Visibility: 10 mi

Pressure: 29.90 "Hg

Humidity: 33%

Dew point: 52 °F

Location of ModestoLocation

Historic Weather in Modesto — Graph

°F

Modesto temperature yesterday

Maximum temperature yesterday: 104 °F (at 3:53 PM)
Minimum temperature yesterday: 70 °F (at 6:53 AM)
Average temperature yesterday: 86 °F

Past Weeks' High & Low Weather Summary

 TemperatureHumidityPressure
High105 °F (Aug 17, 3:53 PM)78% (Aug 20, 5:53 AM)30.01 "Hg (Aug 20, 5:53 AM)
Low61 °F (Aug 22, 6:53 AM)12% (Aug 15, 5:53 PM)29.72 "Hg (Aug 17, 5:53 PM)
Average81 °F39%29.87 "Hg
* Reported Aug 14 5:53 PM — Aug 29 5:53 PM, Modesto, Weather by CustomWeather, © 2015

Note: Actual official high and low records may vary slightly from our data, if they occured in-between our weather recording intervals... More about our weather records

Advertising

Modesto weather history for previous 24 hours

 ConditionsComfort  
Time TempWeatherWind HumidityBarometerVisibility
5:53 PM
Sat, Aug 29
85 °FSunny.17 mph40%29.90 "Hg10 mi
4:53 PM86 °FSunny.20 mph43%29.90 "Hg10 mi
3:53 PM88 °FSunny.18 mph40%29.91 "Hg10 mi
2:53 PM89 °FSunny.17 mph39%29.92 "Hg10 mi
1:53 PM88 °FSunny.14 mph39%29.93 "Hg10 mi
12:53 PM87 °FSunny.16 mph37%29.94 "Hg10 mi
11:53 AM85 °FSunny.6 mph42%29.95 "Hg10 mi
10:53 AM82 °FSunny.16 mph46%29.96 "Hg10 mi
9:53 AM79 °FScattered clouds.9 mph48%29.96 "Hg10 mi
8:53 AM76 °FScattered clouds.12 mph56%29.96 "Hg10 mi
7:53 AM72 °FSunny.9 mph64%29.95 "Hg10 mi
6:53 AM70 °FClear.5 mph68%29.94 "Hg10 mi
5:53 AM71 °FClear.7 mph66%29.92 "Hg10 mi
4:53 AM72 °FClear.12 mph64%29.91 "Hg10 mi
3:53 AM72 °FClear.7 mph64%29.89 "Hg10 mi
2:53 AM73 °FClear.8 mph62%29.88 "Hg10 mi
1:53 AM75 °FClear.7 mph54%29.87 "Hg10 mi
12:53 AM77 °FClear.10 mph48%29.86 "Hg10 mi
11:53 PM
Fri, Aug 28
78 °FClear.8 mph45%29.85 "Hg10 mi
10:53 PM81 °FClear.8 mph37%29.84 "Hg10 mi
9:53 PM82 °FClear.14 mph37%29.83 "Hg10 mi
8:53 PM86 °FClear.14 mph28%29.81 "Hg10 mi
7:53 PM91 °FSunny.21 mph23%29.78 "Hg10 mi
Weather by CustomWeather, © 2015

See weather overviewHow to use our weather pages